Amarillo, TX

10:55 AM CDT on September 22, 2017 (GMT -0500)
Amarillo International

Weather History for KAMA - December, 2013

Change the Weather History Date:

Sunday, December 8, 2013

  Actual Average Record
Temperature  
Mean Temperature 33 °F 38 °F  
Max Temperature 50 °F 50 °F 77 °F (1984)
Min Temperature 15 °F 25 °F -3 °F (2005)
Degree Days  
Heating Degree Days 32 27  
Month to date heating degree days 254 211  
Since 1 July heating degree days 1092 1055  
Cooling Degree Days 0 0  
Month to date cooling degree days 0 0  
Year to date cooling degree days 1806 1399  
Moisture  
Dew Point 18 °F    
Average Humidity 62    
Maximum Humidity 92    
Minimum Humidity 32    
Precipitation  
Precipitation 0.00 in 0.02 in 0.57 in (1899)
Month to date precipitation 0.02 0.16  
Year to date precipitation 14.90 19.81  
Snow  
Snow 0.00 in 0.20 in 3.00 in (1951)
Month to date snowfall 0.2 1.0  
Since 1 July snowfall 4.5 3.7  
Snow Depth 0.00 in    
Sea Level Pressure  
Sea Level Pressure 29.96 in    
Wind  
Wind Speed 15 mph (WSW)    
Max Wind Speed 33 mph    
Max Gust Speed 44 mph    
Visibility 8 miles    
Events      
T = Trace of Precipitation, MM = Missing Value Source: NWS Daily Summary

Daily Weather History Graph

Daily Weather History Graph

Search for Another Location

Airport or City:

Trip Planner

Search our weather history database for the weather conditions in past years. The results will help you decide how hot, cold, wet, or windy it might be!

Date:

Astronomy

Dec. 08, 2013 Rise Set
Actual Time 7:43 AM CST 5:34 PM CST
Civil Twilight 7:15 AM CST 6:02 PM CST
Nautical Twilight 6:43 AM CST 6:34 PM CST
Astronomical Twilight 6:12 AM CST 7:05 PM CST
Moon 12:15 PM CST (12/8) No Moon Set
Length of Visible Light 10h 47m
Length of Day
9h 51m
Waxing Crescent, 40% of the Moon is Illuminated
Dec 8
Waxing Crescent
Dec 9
First Quarter
Dec 17
Full
Dec 25
Last Quarter
Jan 1
New

Hourly Weather History & Observations

Time (CST) Temp. Windchill Dew Point Humidity Pressure Visibility Wind Dir Wind Speed Gust Speed Precip Events Conditions
12:53 AM 16.0 °F 2.3 °F 14.0 °F 92% 30.10 in 6.0 mi South 12.7 mph - N/A   Overcast
1:53 AM 17.1 °F 3.0 °F 14.0 °F 88% 30.06 in 6.0 mi South 13.8 mph - N/A   Overcast
2:29 AM 17.6 °F 4.3 °F 15.8 °F 93% 29.94 in 5.0 mi SSW 12.7 mph - N/A   Overcast
2:53 AM 18.0 °F 4.8 °F 15.1 °F 88% 30.03 in 7.0 mi South 12.7 mph - N/A   Overcast
3:04 AM 17.6 °F 3.2 °F 15.8 °F 93% 29.91 in 8.0 mi SSW 15.0 mph 19.6 mph N/A   Overcast
3:53 AM 18.0 °F 3.6 °F 16.0 °F 92% 30.01 in 8.0 mi SSW 15.0 mph 26.5 mph N/A   Overcast
4:53 AM 19.0 °F 6.1 °F 17.1 °F 92% 29.98 in 5.0 mi SSW 12.7 mph - N/A   Overcast
5:53 AM 21.0 °F 8.1 °F 19.0 °F 92% 29.96 in 6.0 mi SW 13.8 mph 23.0 mph N/A   Overcast
6:53 AM 21.9 °F 10.4 °F 19.9 °F 92% 29.96 in 6.0 mi SW 11.5 mph - N/A   Overcast
7:53 AM 23.0 °F 9.6 °F 19.9 °F 88% 29.94 in 5.0 mi SSW 16.1 mph 24.2 mph N/A   Overcast
8:28 AM 23.0 °F 8.3 °F 21.2 °F 93% 29.82 in 5.0 mi SSW 19.6 mph 28.8 mph N/A   Overcast
8:53 AM 24.1 °F 9.0 °F 21.9 °F 91% 29.91 in 5.0 mi SSW 21.9 mph 31.1 mph N/A   Overcast
9:53 AM 27.0 °F 13.2 °F 25.0 °F 92% 29.92 in 9.0 mi SSW 20.7 mph - N/A   Scattered Clouds
10:53 AM 35.1 °F 23.8 °F 24.1 °F 64% 29.91 in 10.0 mi SSW 20.7 mph 28.8 mph N/A   Clear
11:53 AM 45.0 °F 36.4 °F 24.1 °F 44% 29.87 in 10.0 mi SW 23.0 mph 32.2 mph N/A   Clear
12:53 PM 48.9 °F - 21.0 °F 33% 29.84 in 10.0 mi WSW 28.8 mph 41.4 mph N/A   Clear
1:53 PM 50.0 °F - 21.9 °F 33% 29.83 in 10.0 mi WSW 26.5 mph 35.7 mph N/A   Clear
2:53 PM 50.0 °F - 21.9 °F 33% 29.85 in 10.0 mi WSW 24.2 mph 34.5 mph N/A   Partly Cloudy
3:40 PM 46.4 °F 40.7 °F 19.4 °F 34% 29.85 in 10.0 mi NW 12.7 mph - N/A   Overcast
3:53 PM 46.9 °F - 19.9 °F 34% 29.88 in 10.0 mi NW 8.1 mph - N/A   Overcast
4:53 PM 43.0 °F 36.4 °F 17.1 °F 35% 29.92 in 10.0 mi NW 12.7 mph - N/A   Partly Cloudy
5:53 PM 37.9 °F 31.5 °F 14.0 °F 38% 29.96 in 10.0 mi NW 9.2 mph - N/A   Clear
6:53 PM 36.0 °F 30.3 °F 9.0 °F 33% 30.00 in 10.0 mi WNW 6.9 mph - N/A   Clear
7:53 PM 26.1 °F 15.0 °F 15.1 °F 63% 30.06 in 10.0 mi NNE 12.7 mph 23.0 mph N/A   Clear
8:53 PM 21.0 °F 10.6 °F 12.9 °F 71% 30.08 in 10.0 mi NNE 9.2 mph - N/A   Clear
9:53 PM 19.0 °F 9.0 °F 12.0 °F 74% 30.12 in 10.0 mi NNE 8.1 mph - N/A   Clear
10:53 PM 17.1 °F 6.6 °F 10.9 °F 77% 30.12 in 10.0 mi North 8.1 mph - N/A   Clear
11:53 PM 15.1 °F 4.2 °F 12.0 °F 88% 30.10 in 9.0 mi North 8.1 mph - N/A   Clear